Temp
65 64 61 61 54 47 39 44 47 50 49 51 53 54 51 48 49 45 57 60 60 60 63 64 72 74 74 74 74 75 75 76 76 77 77 77 76 76 76 77 76 76 77 77 78 78 78 77 76
63 66 61 53 47 41 42 46 49 51 54 52 53 50 50 46 52 54 54 59 59 59 61 64 71 72 73 73 73 73 74 75 75 75 76 76 76 77 77 76 76 76 76 77 78 78 78 77 76
65 65 58 48 41 42 43 47 50 50 52 50 49 51 47 48 51 53 54 57 58 57 59 64 70 71 71 71 71 72 72 72 73 73 74 74 74 74 75 75 75 75 76 76 77 78 77 76 76
62 60 54 48 41 43 45 49 52 52 49 53 48 45 49 52 52 54 56 56 53 55 56 61 68 69 69 70 70 70 70 70 70 70 70 70 71 72 72 73 74 74 75 76 76 77 76 75 75
58 54 47 43 42 44 47 51 54 52 49 48 47 44 46 52 53 54 52 54 53 53 53 55 65 66 67 67 68 68 68 68 68 68 68 68 69 69 70 70 71 72 73 75 75 75 75 74 74
55 52 45 41 42 47 49 52 53 49 48 48 47 45 46 52 52 50 52 50 52 52 53 53 58 63 64 65 65 66 66 66 66 66 65 66 66 67 67 66 67 69 70 72 73 74 74 74 74
53 48 43 41 44 46 52 55 52 50 49 49 50 43 44 48 52 51 49 49 50 51 52 50 51 55 59 62 62 63 64 64 64 63 63 63 63 64 63 63 65 67 67 68 68 70 72 73 73
51 50 43 40 45 48 53 51 49 49 49 49 49 44 42 49 53 51 49 49 48 49 49 49 49 50 50 51 59 60 61 61 61 61 61 60 59 61 60 60 62 64 64 65 67 67 69 70 72
53 48 43 46 46 50 54 50 47 47 48 45 47 46 49 51 50 48 46 47 47 50 48 48 48 48 49 52 53 53 56 57 57 56 57 54 52 54 54 57 60 61 62 63 65 65 65 66 66
51 46 48 51 49 49 52 51 50 47 44 44 43 46 48 49 47 46 45 44 44 45 47 46 46 47 47 55 47 46 49 46 47 48 48 50 50 52 54 53 56 57 58 60 62 62 61 59 58
48 48 50 52 53 53 52 49 49 48 43 47 45 46 46 44 44 45 44 44 44 42 45 46 46 46 45 45 44 43 43 43 43 45 46 47 48 48 48 48 49 48 53 52 54 53 54 55 54
48 51 52 55 54 51 50 49 48 48 50 48 49 49 44 44 44 44 44 44 44 44 44 45 45 45 45 43 43 43 43 43 42 43 45 44 43 44 46 45 45 47 48 48 49 49 51 54 54
48 49 52 53 54 52 52 50 50 47 46 46 47 46 44 44 44 44 45 45 44 44 44 44 44 44 45 44 42 43 42 42 42 43 44 44 43 42 42 44 44 45 46 47 47 48 48 50 52
48 49 51 52 52 51 50 46 47 47 43 44 46 44 43 43 43 41 42 43 44 44 43 43 44 44 44 43 42 42 41 42 42 42 43 44 43 41 44 43 43 43 45 46 46 47 47 47 49
48 48 49 47 49 50 49 46 45 45 44 43 43 42 42 43 43 43 43 43 43 42 42 43 45 44 43 42 42 41 41 42 40 41 42 42 42 41 39 40 40 41 43 44 45 46 46 46 47
45 43 42 46 49 47 48 43 50 44 43 42 41 39 41 42 43 42 43 43 42 41 41 42 46 42 42 41 41 41 41 39 39 39 40 40 41 40 38 39 38 39 39 40 42 44 44 44 45
42 39 38 46 49 46 46 44 49 43 42 42 41 40 41 40 40 40 41 41 41 41 40 41 41 41 41 41 40 39 39 38 38 37 38 38 39 39 37 37 37 37 37 37 39 41 43 43 44
39 36 39 40 45 43 42 45 52 44 41 44 43 41 40 41 42 40 40 41 40 39 39 39 40 40 40 39 38 37 36 36 36 36 37 37 37 37 36 35 35 35 34 34 35 36 38 41 43
41 38 38 41 46 43 43 45 51 51 40 41 39 38 40 41 41 40 40 39 38 37 38 38 38 38 37 35 34 33 33 34 34 35 36 36 35 35 34 33 33 33 31 32 34 34 34 37 42
40 36 37 41 41 41 41 41 47 51 45 44 44 40 41 41 39 40 38 37 37 37 37 37 37 37 37 35 35 34 32 33 33 34 34 34 34 33 34 32 31 31 30 32 33 34 35 38 40
38 36 35 39 39 39 36 36 38 45 44 45 44 46 43 42 41 39 37 35 35 35 35 37 37 36 36 36 34 33 33 32 30 31 30 31 32 32 32 31 30 30 31 30 31 30 30 31 36
36 40 38 37 34 30 38 32 36 43 45 42 42 40 42 41 42 40 38 34 34 35 35 35 36 35 36 34 32 29 27 27 28 29 30 30 30 30 30 31 30 29 30 28 28 31 30 30 30
41 40 37 35 31 27 29 25 31 34 40 48 46 42 42 41 41 40 38 38 36 36 34 34 34 34 34 33 31 28 27 27 28 27 28 29 29 30 30 30 29 28 29 28 27 27 27 30 30
41 37 34 29 28 21 30 29 29 33 39 42 42 40 39 38 40 40 39 36 36 34 33 32 32 32 32 31 30 27 25 25 26 26 26 27 28 28 28 30 28 28 27 27 26 27 28 27 28
38 35 27 23 20 26 27 24 39 41 42 44 44 39 37 37 37 36 36 35 34 32 32 32 32 30 30 28 27 26 25 24 23 25 25 25 25 26 26 27 26 26 27 27 27 27 25 25 25
35 36 28 18 18 29 22 25 37 40 42 37 36 36 37 34 37 38 37 36 34 33 31 31 30 28 27 26 26 25 25 25 25 24 24 24 24 24 26 26 26 26 26 26 26 25 25 27 25
34 32 34 26 9 15 30 31 37 40 38 38 36 36 35 34 35 36 36 35 32 31 30 30 28 27 26 25 25 23 23 23 23 23 24 23 24 25 26 25 24 24 25 25 25 24 23 24 24
35 37 29 28 20 11 27 30 36 44 40 41 36 35 34 32 34 35 35 34 32 31 29 28 26 25 25 25 23 24 22 22 22 22 21 22 22 23 23 23 23 23 24 24 24 23 24 22 23
31 31 31 32 26 20 15 36 38 42 42 42 38 38 35 33 34 34 34 32 31 29 27 26 25 24 24 24 23 22 21 21 21 20 20 20 21 21 21 21 21 21 22 22 22 22 22 21 22
32 34 37 30 25 21 21 35 39 41 42 40 38 38 34 34 34 34 33 30 28 27 26 24 23 22 23 22 21 20 20 19 18 18 19 20 19 20 19 20 19 20 20 20 20 20 21 20 20
MSLP
1013.69 1013.83 1014.13 1014.61 1016.05 1016.83 1017.57 1017.27 1016.96 1017.00 1017.44 1017.81 1017.98 1018.44 1019.42 1020.31 1020.72 1021.76 1021.68 1021.67 1021.35 1021.07 1020.50 1019.81 1019.10 1018.64 1018.29 1018.03 1017.83 1017.69 1017.54 1017.39 1017.35 1017.31 1017.26 1017.30 1017.27 1017.22 1017.07 1017.01 1017.02 1017.10 1017.08 1017.01 1016.91 1016.86 1016.79 1016.74 1016.76
1013.88 1014.03 1014.56 1015.41 1016.45 1017.61 1017.74 1017.09 1016.91 1017.12 1017.75 1018.25 1018.49 1019.34 1020.13 1021.18 1021.15 1021.51 1021.83 1021.75 1021.57 1021.32 1020.74 1020.07 1019.49 1019.23 1018.83 1018.47 1018.35 1018.11 1017.95 1017.78 1017.61 1017.53 1017.36 1017.25 1017.13 1017.09 1017.12 1017.03 1016.95 1016.97 1016.95 1016.87 1016.76 1016.64 1016.61 1016.61 1016.57
1013.80 1014.01 1015.34 1016.31 1017.48 1017.61 1017.21 1016.82 1016.95 1017.47 1017.87 1018.38 1019.35 1020.12 1020.81 1021.35 1021.46 1021.71 1021.97 1022.00 1021.86 1021.72 1021.28 1020.57 1019.88 1019.53 1019.18 1018.90 1018.73 1018.61 1018.42 1018.27 1018.10 1018.00 1017.79 1017.67 1017.56 1017.38 1017.14 1017.01 1016.92 1016.88 1016.77 1016.71 1016.62 1016.43 1016.32 1016.32 1016.29
1014.12 1014.80 1016.33 1016.47 1017.18 1016.91 1016.66 1016.45 1016.85 1017.94 1018.48 1018.71 1019.65 1020.92 1021.21 1021.49 1021.61 1021.75 1021.97 1022.08 1022.02 1021.79 1021.40 1020.92 1020.41 1020.06 1019.77 1019.41 1019.14 1019.04 1018.93 1018.78 1018.67 1018.54 1018.49 1018.30 1018.03 1017.81 1017.63 1017.37 1017.08 1016.86 1016.69 1016.53 1016.37 1016.28 1016.20 1016.09 1016.06
1014.68 1015.74 1016.68 1017.12 1016.96 1016.59 1016.39 1016.33 1016.85 1017.66 1018.42 1019.16 1019.77 1020.95 1021.49 1021.66 1021.80 1021.86 1022.16 1022.25 1022.15 1021.98 1021.73 1021.41 1020.80 1020.43 1020.10 1019.86 1019.72 1019.58 1019.40 1019.26 1019.23 1019.17 1018.89 1018.71 1018.44 1018.25 1018.16 1017.91 1017.52 1017.22 1016.74 1016.44 1016.25 1016.02 1015.96 1015.99 1015.80
1015.50 1016.34 1017.30 1017.52 1016.85 1016.41 1016.24 1016.27 1016.94 1017.76 1018.60 1019.53 1020.19 1020.99 1021.48 1021.54 1021.89 1022.07 1022.25 1022.28 1022.13 1022.08 1021.90 1021.64 1021.34 1020.97 1020.66 1020.46 1020.31 1020.13 1020.04 1019.92 1019.78 1019.68 1019.48 1019.25 1018.95 1018.74 1018.68 1018.54 1018.06 1017.63 1017.22 1016.69 1016.31 1015.99 1015.82 1015.69 1015.61
1015.57 1016.70 1017.33 1017.15 1016.72 1016.40 1016.08 1016.30 1017.07 1017.87 1018.55 1019.22 1019.86 1021.40 1021.63 1021.91 1021.92 1022.15 1022.25 1022.27 1022.28 1022.23 1022.01 1021.89 1021.69 1021.35 1021.08 1020.81 1020.71 1020.53 1020.39 1020.25 1020.11 1020.04 1019.80 1019.63 1019.52 1019.24 1019.15 1018.86 1018.38 1018.10 1017.79 1017.32 1016.87 1016.30 1015.83 1015.54 1015.36
1015.64 1016.42 1017.23 1017.13 1016.81 1016.18 1015.90 1016.52 1017.28 1017.94 1018.85 1019.41 1019.83 1020.67 1021.34 1021.23 1021.57 1021.94 1022.05 1022.16 1022.27 1022.20 1022.14 1022.12 1021.95 1021.69 1021.54 1021.49 1021.29 1021.06 1020.86 1020.74 1020.52 1020.36 1020.14 1019.99 1019.81 1019.58 1019.46 1019.31 1018.82 1018.40 1018.05 1017.55 1017.10 1016.65 1016.05 1015.61 1015.12
1015.41 1016.32 1016.96 1016.68 1016.59 1015.71 1015.88 1016.75 1017.78 1018.34 1019.07 1019.65 1019.91 1020.19 1020.00 1020.42 1021.42 1021.93 1022.18 1022.40 1022.52 1022.54 1022.55 1022.32 1022.08 1021.80 1021.61 1021.46 1021.51 1021.51 1021.26 1020.97 1020.81 1020.63 1020.39 1020.35 1020.24 1020.06 1019.90 1019.66 1019.26 1018.67 1018.23 1017.71 1017.10 1016.88 1016.49 1015.91 1015.26
1015.65 1016.39 1016.09 1015.70 1015.60 1015.53 1015.89 1016.62 1017.65 1018.58 1019.25 1019.85 1020.17 1020.35 1020.56 1020.88 1021.52 1021.97 1022.28 1022.43 1022.52 1022.62 1022.62 1022.50 1022.29 1022.19 1021.94 1021.59 1021.67 1021.53 1021.49 1021.41 1021.02 1020.75 1020.56 1020.36 1020.28 1020.05 1019.88 1019.75 1019.34 1019.13 1018.55 1018.01 1017.36 1017.12 1016.87 1016.50 1016.15
1015.70 1015.89 1015.61 1015.41 1015.36 1015.49 1015.96 1016.79 1017.44 1018.30 1019.24 1018.79 1018.95 1019.96 1020.72 1021.24 1021.64 1021.93 1022.21 1022.43 1022.59 1022.69 1022.62 1022.50 1022.29 1022.12 1021.96 1021.93 1021.92 1021.79 1021.69 1021.62 1021.34 1020.94 1020.55 1020.36 1020.18 1020.03 1019.93 1019.73 1019.41 1019.16 1018.68 1018.22 1017.64 1017.33 1017.10 1016.64 1016.46
1015.71 1015.74 1015.66 1015.50 1015.46 1015.74 1016.20 1016.93 1017.44 1017.78 1017.11 1017.75 1018.30 1019.35 1020.41 1021.16 1021.54 1021.90 1022.22 1022.32 1022.37 1022.49 1022.49 1022.49 1022.38 1022.28 1022.22 1022.30 1022.37 1022.46 1022.48 1022.01 1021.79 1021.45 1021.15 1020.80 1020.27 1019.94 1019.97 1019.91 1019.52 1019.21 1018.81 1018.36 1017.86 1017.40 1016.92 1016.42 1016.16
1015.67 1015.92 1015.76 1015.59 1015.77 1015.95 1016.33 1016.88 1017.48 1016.99 1017.18 1017.79 1018.68 1019.72 1020.44 1020.89 1021.13 1021.42 1021.65 1021.99 1022.16 1022.31 1022.51 1022.69 1022.67 1022.71 1022.70 1022.83 1022.97 1022.85 1022.65 1022.30 1022.17 1021.74 1020.98 1020.53 1020.57 1020.64 1020.00 1019.96 1019.68 1019.22 1018.84 1018.49 1018.02 1017.59 1016.95 1016.30 1016.02
1015.94 1016.00 1015.90 1015.73 1015.81 1016.06 1016.50 1017.07 1017.71 1016.73 1017.56 1018.48 1019.08 1019.70 1020.41 1020.97 1021.37 1021.87 1022.08 1022.05 1022.16 1022.35 1022.42 1022.65 1022.81 1022.92 1022.91 1023.01 1023.07 1022.97 1022.64 1022.50 1022.29 1022.03 1021.56 1021.05 1020.75 1020.47 1020.29 1020.08 1019.77 1019.48 1018.94 1018.50 1018.07 1017.45 1016.92 1016.35 1015.69
1016.21 1016.33 1015.95 1015.86 1015.84 1016.11 1016.38 1017.25 1017.13 1016.92 1017.95 1018.87 1019.57 1020.08 1020.62 1020.71 1020.79 1020.86 1021.14 1021.50 1021.75 1022.18 1022.38 1022.55 1022.65 1022.81 1022.84 1022.82 1022.74 1022.61 1022.47 1022.41 1022.39 1022.12 1021.63 1021.03 1020.53 1020.58 1020.31 1020.16 1020.01 1019.53 1019.12 1018.62 1017.96 1017.16 1016.61 1016.07 1015.59
1016.73 1016.79 1016.67 1016.09 1016.01 1016.23 1016.56 1016.22 1016.18 1016.77 1017.93 1018.86 1019.46 1020.05 1020.24 1020.46 1020.62 1020.82 1021.07 1021.40 1021.77 1022.09 1022.32 1022.34 1022.36 1022.65 1022.77 1022.84 1022.83 1022.73 1022.65 1022.57 1022.41 1022.20 1021.65 1020.95 1020.63 1020.47 1020.31 1020.19 1020.02 1019.72 1019.34 1018.95 1018.06 1017.35 1016.47 1015.94 1015.29
1017.74 1017.69 1017.47 1016.72 1016.22 1016.43 1016.79 1016.08 1015.88 1016.89 1017.84 1018.42 1018.82 1019.15 1019.55 1019.86 1020.10 1020.63 1020.91 1021.16 1021.42 1021.63 1021.85 1022.04 1022.22 1022.48 1022.63 1022.70 1022.69 1022.72 1022.62 1022.46 1022.30 1022.09 1021.68 1020.94 1020.58 1020.33 1020.38 1020.11 1019.84 1019.63 1019.21 1018.75 1018.08 1017.36 1016.67 1015.69 1015.15
1018.00 1018.12 1017.89 1017.58 1016.76 1016.87 1016.92 1015.98 1015.55 1016.47 1017.30 1017.15 1017.52 1018.32 1018.87 1019.23 1019.45 1019.98 1020.30 1020.70 1021.15 1021.48 1021.70 1022.05 1022.36 1022.43 1022.48 1022.64 1022.80 1022.69 1022.60 1022.46 1022.30 1021.86 1021.27 1020.92 1020.48 1020.31 1020.05 1019.82 1019.49 1019.31 1019.17 1018.47 1018.26 1017.68 1016.96 1016.01 1014.65
1017.46 1018.02 1018.29 1017.36 1016.91 1017.17 1016.42 1016.00 1014.78 1015.27 1015.97 1016.37 1016.70 1017.40 1017.88 1018.11 1019.04 1019.70 1020.19 1020.67 1021.25 1021.62 1021.83 1022.01 1022.17 1022.33 1022.62 1022.73 1022.76 1022.64 1022.50 1021.93 1021.65 1021.42 1020.85 1020.50 1020.39 1020.31 1020.04 1019.64 1019.48 1019.34 1019.00 1018.46 1018.14 1017.58 1016.80 1015.84 1014.76
1017.60 1018.17 1018.04 1017.54 1017.22 1017.59 1016.61 1015.63 1014.89 1013.95 1013.81 1014.08 1015.09 1015.92 1016.24 1017.36 1017.89 1018.64 1019.62 1020.36 1020.86 1021.29 1021.59 1021.71 1021.80 1022.01 1022.11 1022.29 1022.54 1022.49 1022.25 1021.73 1021.38 1021.34 1020.84 1020.45 1020.54 1020.33 1019.89 1019.47 1019.57 1019.15 1018.98 1018.47 1017.91 1017.30 1016.37 1015.38 1014.87
1017.67 1018.19 1018.07 1018.21 1018.08 1017.74 1017.25 1014.93 1014.09 1012.70 1012.65 1012.85 1013.51 1014.05 1015.19 1016.05 1017.27 1018.70 1019.56 1019.97 1020.27 1020.60 1020.86 1021.20 1021.44 1021.63 1021.78 1022.02 1022.13 1022.01 1021.83 1021.77 1021.48 1021.18 1020.73 1020.45 1020.39 1020.24 1019.81 1019.43 1019.30 1019.21 1018.84 1018.07 1017.49 1017.23 1016.77 1015.21 1014.30
1017.63 1017.15 1017.92 1018.60 1019.23 1019.16 1018.18 1014.98 1014.20 1012.94 1012.66 1012.29 1012.49 1013.42 1013.95 1015.00 1016.20 1017.29 1018.41 1019.23 1019.75 1019.90 1020.33 1020.73 1021.08 1021.30 1021.44 1021.59 1021.66 1021.83 1021.91 1021.78 1020.93 1020.85 1020.47 1020.13 1019.98 1019.55 1019.05 1018.92 1018.99 1018.91 1018.13 1017.48 1017.09 1016.70 1016.37 1015.87 1014.01
1017.01 1017.37 1018.24 1018.93 1019.65 1019.91 1018.81 1018.43 1013.78 1013.43 1013.02 1011.63 1011.36 1012.20 1013.04 1013.85 1014.75 1015.80 1016.99 1018.14 1018.93 1019.37 1019.92 1020.38 1020.78 1021.00 1021.07 1021.17 1021.25 1021.27 1021.40 1021.16 1020.44 1020.28 1019.94 1019.85 1019.24 1018.84 1018.34 1018.38 1018.31 1017.79 1017.17 1016.75 1016.66 1016.38 1016.02 1015.34 1014.31
1017.23 1018.01 1019.00 1020.04 1020.59 1020.09 1017.37 1017.28 1013.94 1012.96 1011.70 1011.41 1011.01 1011.68 1012.57 1013.60 1014.40 1015.38 1016.35 1017.52 1018.39 1018.98 1019.64 1020.05 1020.37 1020.64 1020.81 1020.78 1020.85 1020.88 1021.06 1020.58 1020.23 1019.80 1019.78 1019.38 1018.97 1018.51 1018.18 1017.85 1017.25 1016.76 1016.50 1016.14 1015.93 1015.55 1014.89 1014.65 1013.98
1017.70 1018.87 1020.19 1020.83 1021.28 1018.84 1017.33 1017.16 1011.73 1010.81 1010.03 1010.02 1010.67 1011.51 1012.18 1012.98 1014.12 1015.01 1015.71 1016.72 1017.64 1018.46 1019.12 1019.72 1020.14 1020.36 1020.54 1020.52 1020.37 1020.54 1020.63 1020.12 1019.97 1019.72 1019.35 1018.86 1018.33 1017.96 1017.49 1017.01 1016.40 1015.95 1015.66 1015.38 1015.00 1014.39 1014.17 1013.79 1012.97
1017.79 1018.44 1019.65 1020.41 1021.47 1019.08 1017.60 1014.30 1009.72 1009.11 1009.11 1009.71 1010.57 1011.27 1011.78 1012.64 1013.48 1014.13 1014.82 1015.85 1016.77 1017.75 1018.38 1018.93 1019.50 1019.96 1020.15 1020.20 1020.11 1020.17 1020.16 1020.01 1019.77 1019.50 1019.27 1018.91 1018.31 1017.53 1016.74 1016.14 1015.72 1015.22 1014.79 1014.38 1014.07 1013.53 1012.94 1012.27 1011.68
1017.74 1018.10 1018.05 1019.50 1021.60 1020.26 1015.28 1010.91 1009.46 1008.45 1008.76 1009.62 1010.27 1011.18 1011.55 1012.07 1012.80 1013.38 1014.50 1015.54 1016.52 1017.29 1018.07 1018.80 1019.31 1019.48 1019.77 1019.92 1020.05 1019.96 1019.89 1019.71 1019.49 1019.28 1018.91 1018.39 1017.80 1016.72 1016.01 1015.62 1014.93 1014.41 1013.93 1013.55 1013.05 1012.41 1011.79 1011.43 1010.73
1016.82 1017.15 1018.35 1019.23 1020.14 1018.93 1013.37 1010.08 1008.09 1007.85 1008.17 1008.64 1009.65 1010.41 1010.84 1011.68 1012.44 1012.95 1013.49 1014.67 1015.89 1016.87 1017.64 1018.39 1018.96 1019.34 1019.50 1019.65 1019.85 1019.81 1019.46 1019.31 1019.13 1018.70 1018.23 1017.54 1017.00 1016.59 1015.72 1014.91 1014.25 1013.50 1012.96 1012.56 1012.09 1011.34 1010.73 1010.29 1009.64
1016.92 1017.09 1017.59 1018.00 1017.92 1016.98 1014.70 1006.60 1005.42 1005.84 1006.47 1007.50 1008.29 1008.90 1009.64 1010.48 1011.44 1012.43 1013.07 1013.92 1015.20 1016.35 1017.30 1018.00 1018.48 1018.92 1019.31 1019.54 1019.66 1019.34 1019.09 1018.81 1018.60 1018.20 1017.71 1017.23 1016.65 1015.93 1015.28 1014.48 1013.57 1012.75 1012.04 1011.59 1011.04 1010.37 1009.75 1009.10 1008.43
1014.84 1014.93 1015.41 1016.23 1015.92 1015.43 1014.19 1006.43 1003.98 1004.65 1005.32 1006.25 1007.36 1008.15 1008.60 1009.43 1010.41 1011.48 1012.50 1013.59 1014.89 1015.69 1016.60 1017.37 1017.97 1018.57 1018.97 1019.04 1019.06 1018.69 1018.34 1018.23 1018.30 1017.95 1017.63 1017.19 1016.57 1015.86 1015.13 1014.25 1013.35 1012.42 1011.42 1010.71 1010.08 1009.31 1008.67 1007.95 1007.31
Wind_Speed
2 5 3 5 5 7 1 2 1 2 3 4 3 8 8 4 3 4 5 6 8 8 10 11 15 17 17 19 19 19 17 12 11 11 11 12 12 10 11 11 9 8 10 11 12 12 12 11 11
1 3 5 3 6 4 4 4 4 2 7 7 6 2 6 3 1 3 4 9 8 7 8 8 16 18 19 19 20 20 19 17 17 17 15 15 15 15 14 15 14 12 13 13 14 14 13 11 10
2 4 4 6 4 3 4 3 5 2 5 1 5 5 3 2 1 3 1 6 7 6 7 9 16 19 20 21 21 21 21 21 20 19 17 18 19 19 17 15 14 15 16 16 15 16 14 13 12
2 5 5 6 2 3 2 4 4 7 1 6 4 8 2 0 1 3 4 4 3 6 7 10 17 19 21 22 22 22 22 22 22 23 22 22 20 20 20 20 19 17 16 18 18 17 15 14 14
5 3 5 4 2 1 3 1 8 4 3 2 2 6 5 2 4 5 4 5 6 7 6 7 17 19 21 21 21 22 21 21 21 21 22 21 21 22 21 22 21 22 20 19 19 19 15 15 14
5 4 5 2 3 2 3 2 5 3 3 4 5 7 6 5 5 3 5 6 5 5 6 6 12 18 20 21 21 21 21 21 21 21 22 22 23 22 23 24 25 25 24 23 22 19 17 16 15
7 5 5 5 4 2 4 6 7 6 6 5 9 7 2 4 5 5 4 5 6 6 6 6 6 9 15 19 19 20 20 20 20 21 21 20 21 21 24 24 24 24 23 24 26 25 20 17 16
5 5 4 3 5 5 6 3 3 3 3 3 3 7 6 7 9 7 5 5 5 4 4 5 5 6 6 6 17 18 19 19 18 19 20 19 18 21 22 22 23 24 25 25 23 24 24 23 20
3 5 2 6 7 5 5 5 1 1 5 1 2 4 4 11 9 6 4 3 3 4 6 5 6 6 6 6 8 11 14 17 15 13 16 10 6 8 10 18 22 23 23 24 21 22 23 24 18
5 4 6 5 4 3 4 4 8 5 3 4 1 1 4 8 6 7 6 5 3 4 4 5 6 6 6 6 6 5 6 5 5 6 6 4 5 7 11 12 19 20 21 22 20 21 21 16 10
1 3 3 3 4 3 2 3 6 7 6 10 12 14 8 5 6 8 6 5 5 2 3 6 6 6 7 6 4 3 3 3 4 6 6 5 4 4 5 5 7 6 12 7 10 9 6 9 8
3 1 2 3 3 2 3 7 5 9 6 1 8 14 8 9 9 8 8 7 5 5 4 5 7 6 6 4 4 5 4 4 4 5 5 3 3 4 6 4 6 7 6 8 6 6 8 9 9
2 1 3 3 5 5 4 5 8 10 2 3 11 10 11 10 9 7 7 6 6 6 4 5 6 6 5 5 4 3 4 4 5 5 5 4 4 4 4 5 6 7 7 7 8 7 7 8 9
0 3 5 6 6 4 4 2 4 2 5 7 12 11 9 9 8 5 6 6 6 6 6 3 5 5 4 3 3 3 3 4 4 4 5 5 4 4 7 6 6 6 8 8 9 8 8 8 8
1 5 6 3 3 4 4 6 11 4 7 9 9 7 8 10 10 10 9 7 7 4 5 5 4 5 5 4 4 4 4 4 4 4 5 5 5 5 5 4 5 5 8 12 10 10 8 8 7
4 4 5 1 3 2 3 12 7 7 11 11 10 9 9 10 9 8 8 7 6 6 6 4 3 3 3 3 3 4 4 3 4 4 4 5 6 6 5 5 5 5 7 8 9 9 10 10 9
7 4 3 9 6 3 5 12 6 7 9 11 13 14 13 10 9 7 8 8 8 8 7 5 3 3 2 1 2 3 3 3 4 4 4 5 5 5 4 4 5 7 6 6 8 9 10 10 10
5 4 5 8 2 3 5 18 14 8 12 19 16 14 14 14 14 10 10 8 8 7 7 5 3 3 2 2 3 3 3 3 4 4 3 5 4 5 6 6 7 8 7 6 7 10 10 13 12
4 4 8 6 5 4 11 14 22 9 11 15 12 14 17 19 8 9 9 8 7 6 7 5 2 2 1 1 2 3 4 4 3 3 5 6 5 6 6 5 8 8 8 9 10 10 12 10 10
4 3 9 9 1 6 11 17 17 17 12 14 17 17 21 16 13 15 12 8 8 8 7 5 3 3 3 2 3 3 3 4 4 3 5 5 5 6 7 5 7 8 8 9 9 10 10 12 8
4 6 6 8 6 5 8 10 7 7 7 7 10 12 16 20 19 14 13 10 8 8 8 7 3 3 3 3 2 2 3 3 2 3 4 3 5 6 7 6 7 9 8 8 7 10 13 13 10
5 6 3 4 5 5 5 14 5 7 11 7 9 11 14 18 16 16 16 10 9 8 7 6 3 3 3 2 2 2 2 3 3 4 4 6 6 7 6 6 7 10 7 8 8 9 10 11 14
8 3 3 1 3 4 4 6 8 3 8 19 9 14 14 16 20 20 18 14 8 8 8 6 2 3 3 3 2 2 5 4 4 4 6 7 6 6 7 7 8 9 7 9 11 12 12 10 11
5 3 5 4 1 3 6 8 5 7 10 7 6 6 10 12 16 15 14 11 8 7 7 6 3 3 3 3 3 4 6 7 6 7 7 7 7 6 7 9 8 9 10 10 11 12 11 12 13
3 6 4 6 3 11 4 4 12 9 11 11 10 5 9 11 14 15 18 14 10 9 8 6 3 3 4 4 4 5 6 6 7 8 7 10 8 8 9 9 10 9 11 12 13 11 14 15 14
7 9 8 9 5 10 2 12 10 11 9 6 5 8 8 10 14 18 17 14 12 9 8 7 4 3 4 4 5 5 6 4 6 7 8 9 9 10 12 11 12 13 13 13 13 12 12 14 12
6 7 3 5 3 3 7 9 8 10 10 8 8 7 10 11 14 17 14 12 10 9 8 7 4 3 3 4 5 5 5 6 7 10 9 9 11 11 14 14 15 15 15 15 15 12 15 15 14
4 4 5 2 3 7 12 17 15 14 10 10 8 11 9 9 12 14 15 14 8 7 7 6 4 3 3 4 4 5 6 6 8 9 11 12 12 14 15 16 16 16 15 15 15 14 15 16 14
4 4 1 2 6 7 4 17 5 8 11 11 11 11 11 13 14 14 14 12 10 8 7 6 3 2 3 3 5 5 6 7 9 10 11 12 13 15 16 17 18 17 17 16 16 17 18 19 17
2 8 12 8 9 4 4 30 1 7 9 8 9 11 8 10 12 14 14 11 9 10 8 6 4 1 3 4 5 6 7 8 9 10 12 13 14 15 17 17 18 18 18 17 18 18 17 18 19
Wind_Direction
104 119 88 42 57 67 153 216 201 184 92 342 36 109 127 54 93 191 196 2 346 350 342 346 22 29 29 31 35 33 34 21 355 331 321 313 307 303 297 293 289 293 293 296 302 305 302 301 301
118 123 45 77 81 66 265 267 183 152 150 157 75 47 52 86 17 91 52 340 351 345 338 351 34 39 40 41 39 36 30 28 23 17 8 353 336 324 311 303 305 305 301 302 301 302 301 293 289
135 55 79 87 98 155 183 211 154 74 151 102 98 59 96 137 231 111 3 345 344 356 356 7 41 42 42 41 39 37 35 29 25 20 15 10 6 358 344 331 319 312 308 303 300 300 300 300 290
59 14 39 83 149 220 204 183 139 131 105 59 115 81 68 133 141 126 40 356 17 9 5 13 38 42 40 39 38 35 33 31 29 26 20 13 9 9 2 355 342 322 308 303 299 297 297 294 298
39 57 52 64 299 257 235 225 147 138 114 107 147 179 147 92 114 87 61 41 45 21 9 14 42 42 42 40 38 36 34 33 32 26 23 20 17 13 8 6 359 349 333 312 302 299 296 292 289
45 94 64 203 259 258 274 172 123 117 149 164 92 133 190 133 140 100 72 57 44 36 13 23 33 42 43 41 39 38 36 34 30 25 23 22 19 18 14 9 8 2 354 343 326 302 298 292 286
114 87 172 174 213 279 205 149 154 162 157 207 154 138 208 175 183 116 98 71 48 34 35 21 21 34 41 42 38 35 35 35 34 30 27 21 18 21 11 7 5 2 357 354 351 339 307 290 287
103 95 126 191 191 243 193 105 123 162 191 78 151 186 209 198 164 136 102 88 67 51 60 39 33 34 32 31 30 28 28 27 28 26 25 24 20 16 10 4 0 358 356 353 349 350 341 328 294
132 61 177 197 158 237 167 142 46 38 125 184 249 174 225 140 138 140 121 77 40 42 37 35 33 37 30 53 28 22 20 19 17 16 16 11 13 11 10 359 355 355 353 350 349 350 350 342 326
78 103 219 190 200 230 175 163 166 155 162 231 276 74 120 126 151 154 148 133 85 40 22 28 33 28 29 33 23 18 13 357 355 355 353 5 3 2 2 358 355 348 346 345 350 346 347 351 345
135 170 219 252 222 208 192 147 168 146 220 204 198 180 168 145 157 158 153 144 137 121 58 36 32 31 34 22 13 10 3 351 347 352 355 352 6 0 358 350 348 337 336 333 342 340 340 340 337
34 37 240 294 235 147 250 123 227 199 217 336 198 164 158 165 175 165 161 159 137 98 61 39 33 30 30 28 19 5 356 360 346 338 339 351 2 9 354 343 338 333 328 321 326 323 319 326 324
96 303 309 289 288 248 118 226 238 241 262 105 134 150 168 174 179 177 160 149 132 113 89 47 41 33 19 28 10 1 354 355 340 335 342 7 8 355 347 342 335 330 323 318 316 309 304 310 308
265 266 257 260 248 248 206 242 354 272 117 131 156 177 175 177 173 136 162 157 135 136 104 89 67 41 34 37 9 353 357 335 336 324 327 358 7 357 359 337 330 329 328 315 306 300 295 293 296
291 325 317 209 206 246 160 281 239 140 142 162 183 190 183 198 181 184 178 163 150 127 109 88 87 38 26 12 357 354 347 351 332 315 328 16 4 14 347 331 326 321 332 320 307 305 291 289 282
25 49 5 220 155 4 125 270 264 170 160 198 201 201 198 208 202 188 170 152 149 141 134 112 94 58 8 345 334 327 326 325 314 315 309 357 2 8 353 336 318 323 321 305 306 298 296 298 293
8 283 293 313 201 130 169 271 251 169 192 212 210 206 206 208 204 185 176 167 166 161 148 146 169 184 227 265 270 275 287 309 301 303 305 351 1 358 342 326 319 318 308 315 309 305 297 288 287
242 284 263 248 233 194 224 264 267 207 201 220 216 208 208 207 205 186 181 176 166 163 157 162 185 210 277 275 289 267 260 263 268 287 297 341 341 345 338 329 329 327 316 311 310 300 293 287 282
164 198 241 251 242 245 248 251 273 254 218 234 219 206 211 212 192 187 183 174 162 172 166 165 161 237 201 243 329 305 275 284 254 289 324 337 332 337 325 318 330 318 314 308 300 292 289 285 293
164 224 262 280 300 191 267 258 262 255 243 221 218 214 214 201 189 189 183 176 178 176 175 175 198 228 215 181 228 238 262 274 271 296 315 314 313 309 312 312 304 305 293 286 285 284 302 291 289
211 195 235 238 327 255 298 265 243 277 267 241 221 221 214 205 197 190 189 187 179 183 186 188 205 252 234 220 251 266 267 279 256 258 275 276 288 281 285 279 294 295 277 279 304 299 289 291 286
243 211 233 287 6 257 27 290 253 248 276 245 234 212 210 203 199 188 187 187 187 195 179 185 201 249 238 236 254 261 237 258 246 290 279 291 280 278 267 264 273 278 271 288 295 287 285 293 285
224 139 166 143 219 346 238 278 261 19 264 266 251 226 216 202 192 188 188 184 191 172 181 185 201 272 265 254 256 282 284 251 265 269 279 287 274 262 280 274 271 280 281 289 290 281 273 262 275
126 97 61 59 71 288 222 190 220 186 207 253 247 230 207 197 199 192 178 171 181 170 170 181 206 256 280 284 300 309 284 296 307 315 310 302 298 292 274 275 282 285 282 281 284 275 273 279 271
105 75 319 327 351 239 165 220 251 229 220 220 250 282 221 191 186 183 180 181 177 176 181 183 207 269 291 311 311 297 277 285 288 301 300 301 297 287 282 287 288 283 277 276 276 274 277 270 263
176 169 167 230 230 278 345 247 263 226 252 253 241 254 234 188 191 196 187 180 177 179 179 179 197 263 300 308 299 286 293 298 288 287 293 291 286 289 292 286 283 283 281 278 275 272 272 274 277
183 191 171 100 113 342 239 274 281 261 275 261 257 250 234 197 196 193 181 179 177 174 179 178 196 243 279 294 295 301 284 285 292 295 291 286 291 294 294 291 288 283 279 277 275 270 270 267 269
175 172 79 6 252 264 267 275 250 240 236 240 237 234 232 200 199 193 184 179 174 170 160 160 184 258 290 296 287 297 294 291 291 293 291 291 292 292 290 289 287 285 281 280 277 272 268 270 266
135 214 121 158 160 200 278 266 203 220 189 220 223 225 214 199 199 195 186 173 169 157 162 172 181 251 287 289 276 281 297 300 296 291 293 293 292 292 291 290 289 286 284 282 277 271 272 268 268
222 198 174 195 228 254 139 272 197 200 207 220 225 232 217 201 193 192 183 160 164 170 174 178 185 241 253 252 278 301 300 300 296 294 296 299 295 292 291 292 292 291 288 285 279 276 272 271 269